Location:  
MeteoStar

Sort by weather type Sort by elevation Sort by visibility Sort from west to east north Sort from north to south Alphabetically Sort from strongest wind speed Sort from lowest to highest pressure Sort from highest to lowest dew point temperature Sort coolest temperatures to warmest Sort warm temperatures to coolest
 Metric

Current Observations for United Kingdom sorted from warmest to coolest

London City Airport16:50ZCloudy77 57131016.1WSW 9 7716
Gravesend-Broadness17:00ZNot Avail.75 58251015.9WSW 11 759
Northolt16:50ZMostly Cloudy75 57251016.1WNW 11 75124
Southend-On-Sea 16:50ZNot Avail.75 54251016.1W 8 7549
London / Heathrow Airport16:50ZMostly Cloudy75 55251016.1W 14 7578
Mildenhall Royal Air Force Base16:56ZCloudy74 59181015.2W 13 7432
Manston17:00ZNot Avail.74 57181016.7SW 6 74180
Lakenheath Royal Air Force Base16:56ZCloudy74 57151015.2W 10 7432
Shoeburyness17:00ZNot Avail.73 58251016.0S 4 736
Marham16:50ZPartly Cloudy73 55121015.1WSW 11 7375
Holbeach17:00ZNot Avail.73 59301014.7W 13 739
Middle Wallop16:50ZPartly Cloudy73 61201017.0W 8 73298
Odiham16:50ZPartly Cloudy73 55201017.0WNW 12 73403
Brize Norton16:50ZPartly Cloudy73 57251016.0WSW 9 Gusting to 20 73288
Wattisham16:50ZMostly Cloudy73 54301015.0W 8 73285
Benson16:50ZMostly Cloudy73 57201016.0WSW 12 73206
Cranfield16:50ZMostly Cloudy73 59301015.0W 10 73364
Stansted Airport16:50ZClear73 57301016.0W 6 73347
Norwich Weather Centre16:50ZClear73 57301015.1WSW 8 7345
Cambridge16:50ZClear73 55301015.1W 10 7349
Farnborough16:50ZClear73 57201017.0W 11 73213
London / Gatwick Airport16:50ZClear73 63131017.1SW 10 73203
Biggin Hill 16:50ZPartly Cloudy73 59131016.9SW 9 73600
Bournemouth Airport16:50ZPartly Cloudy73 63121017.1WSW 10 7336
Luton Airport 16:50ZMostly Cloudy73 55121015.9W 12 73524
Bedford17:00ZNot Avail.72 58301015.7WSW 8 72278
Weybourne17:00ZNot Avail.72 56251014.7WSW 9 7268
Wainfleet17:00ZNot Avail.72 59111014.2W 8 729
Cranwell16:50ZMostly Cloudy72 59251014.0WSW 11 72219
Waddington16:50ZMostly Cloudy72 57251014.0WSW 8 72223
Wittering16:50ZMostly Cloudy72 57251014.0WSW 9 72275
Coningsby Royal Air Force Base16:50ZMostly Cloudy72 55251014.1W 13 7222
Fairford Royal Air Force Base16:31ZCloudy72 59301016.7W 16 Gusting to 21 72285
Southampton / Weather Centre16:50ZPartly Cloudy72 57121017.1W 8 7229
Boscombe Down16:50ZPartly Cloudy72 59201018.0W 13 72406
Staverton Private 16:50ZShowers nearby72 612.51016.1SW 12 7295
Birmingham / Airport16:50ZMostly Cloudy72 592.51016.0W 6 72324
Thorney Island17:00ZNot Avail.71 63201017.7WSW 14 7113
Kenley17:00ZNot Avail.71 58251016.5WSW 10 71557
High Wicombe Hqstc17:00ZNot Avail.71 58201016.4W 6 71669
Pershore17:00ZNot Avail.71 62201016.4SSW 8 71104
Larkhill17:00ZNot Avail.70 5871017.5W 8 70433
Church Lawford17:00ZNot Avail.70 58251015.7W 7 70351
Donna Nook17:00ZNot Avail.70 57201014.0WSW 7 7026
Exeter Airport16:50ZMostly Cloudy70 59301019.1WNW 13 7098
Lossiemouth16:50ZMostly Cloudy70 59301006.1W 13 7042
Kinloss16:50ZClear70 59451006.1WSW 12 7022
East Midlands16:50ZMostly Cloudy70 57201015.0W 15 70308
Hawarden16:50ZMostly Cloudy70 57201016.1WSW 10 7032
Humberside16:50ZMostly Cloudy70 5931014.1W 10 70101
Lydd Airport 16:50ZClear70 63251017.1WSW 20 709
Shoreham Airport16:50ZClear70 63131017.1WSW 15 706
Yeovilton16:50ZPartly Cloudy70 59121018.1NW 10 7075
Nottingham Weather Centre17:00ZNot Avail.69 58201015.2W 11 69383
Rhyl17:00ZNot Avail.69 59301015.5SW 8 69252
Bridlington Mrsc17:00ZNot Avail.69 5881013.4W 11 6949
Aboyne17:00ZNot Avail.69 56301007.2WSW 13 69459
Herstmonceux17:00ZNot Avail.68 61201017.7W 9 68170
Saint Catherines Point17:00ZNot Avail.68 64131018.2W 14 6852
Little Rissington17:00ZNot Avail.68 59301016.0W 14 68705
Crosby17:00ZNot Avail.68 60301015.4W 11 6826
Leconfield16:50ZMostly Cloudy68 59131013.1W 8 6819
Linton-On-Ouse16:50ZMostly Cloudy68 57131013.1WSW 12 6852
Tain Range17:00ZNot Avail.68 55251006.2SW 16 6813
Inverness / Dalcross16:50ZPartly Cloudy68 59301007.1WSW 14 6829
Aberdeen / Dyce16:50ZShowers nearby68 57301007.1SSW 14 68213
Shawbury16:50ZMostly Cloudy68 57191016.1WSW 14 68249
Portglenone17:00ZNot Avail.67 61131011.4SW 7 67209
Isle Of Portland17:00ZNot Avail.67 63131018.7WSW 13 67173
Langdon Bay17:00ZNot Avail.67 62251017.0SW 11 67383
Lyneham17:00ZNot Avail.67 58171017.4W 10 67475
Camborne17:00ZCloudy66 58121020.5W 12 66285
Shobdon17:00ZNot Avail.66 59131016.5NW 7 66324
Loftus Samos17:00ZNot Avail.66 5781012.7WSW 14 66190
Charterhall17:00ZNot Avail.66 61251010.5SW 13 66367
Aviemore17:00ZNot Avail.66 56251007.2SW 7 66721
Topcliffe Royal Air Force Base 16:50ZMostly Cloudy66 57251014.1W 11 6691
Boulmer16:50ZMostly Cloudy66 59151011.1WSW 13 6675
Leuchars16:50ZMostly Cloudy66 61251009.1WSW 16 6639
Tees-Side16:50ZMostly Cloudy66 55201013.1SW 13 66121
Newcastle 16:50ZMostly Cloudy66 57201012.1WSW 7 66265
Blackpool Airport16:50ZMostly Cloudy66 6331015.1SW 15 6632
Scilly; Saint MaryS16:50ZMostly Cloudy66 63121021.1W 13 66101
Liverpool Airport 16:50ZMostly Cloudy66 59121015.1W 6 6685
Chivenor17:00ZNot Avail.66 59171019.2W 12 6626
Plymouth17:00ZNot Avail.66 5791020.0WNW 12 66164
Manchester Airport16:50ZCloudy66 592.51015.1W 6 66226
Eglinton / Londonderr16:50ZShowers nearby66 612.51011.1WSW 13 6629
Belfast / Harbour16:50ZLight Rain66 632.51012.1SW 9 6616
Dunkeswell Aerodrome17:00ZNot Avail.65 57251018.7W 9 65826
Bingley17:00ZNot Avail.65 57151014.0W 7 65859
Strathallan17:00ZNot Avail.65 60301009.7SW 11 65114
Inverbervie17:00ZNot Avail.65 60181008.2SW 8 65439
Aberporth17:00ZNot Avail.65 58151017.5W 14 65436
Glenanne17:00ZNot Avail.64 59201012.5W 7 64528
Castlederg17:00ZNot Avail.64 60201011.9WSW 14 64167
Mumbles17:00ZNot Avail.64 57151019W 18 Gusting to 25 64114
Milford Haven17:00ZNot Avail.64 58151018.2W 14 64144
Trawscoed17:00ZNot Avail.64 58141017.5W 7 64206
Fylingdales17:00ZNot Avail.64 578WSW 14 64859
Keswick17:00ZRain/Drizzle64 59111013.7WSW 3 64265
Altnaharra17:00ZNot Avail.64 56251006.2SW 8 64265
Leeming16:50ZMostly Cloudy64 55251014.1WSW 12 64131
Dundee / Riverside16:50ZPartly Cloudy64 6141009.1WSW 16 6413
Edinburgh Airport16:50ZMostly Cloudy64 61301010.1W 13 64134
West Freugh17:00ZClear64 61141012.4SSW 7 6436
Pembrey Sands16:50ZCloudy64 59111018.1WSW 19 649
Leeds And Bradford16:50ZPartly Cloudy64 57251014.0WSW 17 64682
Walney Island17:00ZNot Avail.64 59251014.5WSW 11 6449
Jersey Airport16:50ZMostly Cloudy64 63131021.1W 13 64275
Guernsey Airport16:50ZMostly Cloudy64 6391020.0W 12 64334
Alderney / Channel Island16:50ZMostly Cloudy64 6351020.1W 14 64232
Bristol / Lulsgate 16:50ZClear64 57121018.0W 19 64620
Cardiff-Wales Airport16:50ZCloudy64 57121018.1W 16 64219
St Athan Royal Air Force Base16:50ZMostly Cloudy64 57171018.1W 16 64164
Culdrose16:50ZCloudy64 59171020.1WSW 10 64255
Belfast / Aldergrove Airport16:50ZMostly Cloudy64 63251012.1SW 12 64265
Cardinham17:00ZNot Avail.63 58131020W 10 63656
Liscombe17:00ZNot Avail.63 56201018.7W 7 631141
Carlisle17:00ZNot Avail.63 60251012.9N 6391
Glasgow Airport16:50ZCloudy63 59301011.1WSW 14 6326
Wick16:50ZClear63 57171006.1S 7 63127
Valley16:50ZMostly Cloudy63 59251015.1SSW 13 633
Ballypatrick Forest17:00ZRain/Drizzle62 60121011.7WNW 9 62511
Lough Fea17:00ZLight Drizzle62 611.51012.2W 11 62738
Aberdaron17:00ZNot Avail.62 57251017.2SW 14 62311
Capel Curig17:00ZNot Avail.62 59251016.4SW 21 Gusting to 27 62708
Redesdale17:00ZNot Avail.62 5981011.9SW 9 62692
Drumalbin17:00ZNot Avail.62 60301011WSW 15 62803
Loch Glascanoch17:00ZNot Avail.62 53251007.0WSW 13 62869
Saint Helena Island17:00ZNot Avail.61 57201020.2ESE 16 611427
Sennybridge17:00ZNot Avail.61 57101017.5WSW 10 611007
Lake Vyrnwy17:00ZNot Avail.61 57251016.2WSW 15 611181
Warcop Range17:00ZNot Avail.61 57301013.5WSW 11 61744
Shap17:00ZNot Avail.61 57201013.7SW 12 61816
Saint Bees Head17:00ZNot Avail.61 60101013.7SW 9 61406
Dundrennan17:00ZClear61 60101012.5WSW 15 61374
Tulloch Bridge17:00ZNot Avail.61 55301009.5SSW 12 61777
Stornoway16:50ZShowers nearby61 5741006.1WSW 12 6129
Prestwick Airport16:50ZLight Drizzle61 6131012.1WSW 11 6165
Isle Of Man / Ronaldsway Airport16:50ZCloudy61 57201014.1SSW 11 6155
Carlisle16:50ZLight Drizzle61 5931012.1WSW 12 6185
Eskdalemuir17:00ZLight Drizzle60 5991012.0SSW 13 60793
Prestwick Rnas17:00ZClear60 6031011.5SW 11 6085
Spadeadam17:00ZLight Drizzle59 591.51012.5WSW 14 59935
Machrihanish17:00ZNot Avail.59 5931011.4W 7 5942
Tiree16:50ZMostly Cloudy59 55121009.1SW 12 5939
Scatsa / Shetland Island16:50ZLight Rain59 5441006.1SW 11 5972
Benbecula16:50ZMostly Cloudy59 5531008.1WSW 16 5919
Kirkwall Airport16:50ZShowers nearby59 55251006.1S 10 5968
Spadeadam16:50ZLight Drizzle59 591.51012.0WSW 14 591066
Aultbea17:00ZLight Drizzle58 572.251007.5SSW 13 5836
South Uist Range17:00ZNot Avail.58 5671008WSW 15 5832
Baltasound17:00ZClear57 56161005.5SSE 6 5749
Sumburgh Cape 16:50ZMostly Cloudy57 55251006.1S 5 5716
Sule Skerry17:00ZNot Avail.56 5431005.2SSW 4 5652
Lerwick17:00ZShowers in Vicinity56 5471006SW 11 56269
Glen Ogle17:00ZNot Avail.55 5130WSW 19 Gusting to 29 551850
Fair Isle17:00ZDrizzle55 5531006.5S 9 55187
Great Dun Fell17:00ZNot Avail.53 5330WSW 26 Gusting to 33 472778
Cairnwell17:00ZNot Avail.52 5125WSW 19 Gusting to 33 463061
Cairngorm17:00ZNot Avail.49 4825WSW 27 Gusting to 44 414084


Atlantic
Tropical Watch